Location: Shepherdstown, WV
(39.4326°N, 77.8042°W)
Time: 05:42:55
(UTC-04:00)

SR - Pass Details

Date: 09 August 2021
Orbit: 581 x 874 km, 66.7° (Epoch: 24 September)

Event Time Altitude Azimuth Distance (km) Brightness Sun altitude
Rises 15:14:20 0° 316° (NW) 2,993 ? 55.0°
Reaches altitude 10° 15:17:09 10° 301° (WNW) 2,027 ? 54.5°
Maximum altitude 15:20:31 21° 253° (WSW) 1,402 ? 54.0°
Drops below altitude 10° 15:23:44 10° 204° (SSW) 1,927 ? 53.5°
Sets 15:26:21 0° 188° (S) 2,800 ? 53.0°
